Simultaneous Nadir Overpasses (SNOs) Predictions

Prediction of SNOs between GOES-16 and METOP-B Satellite Orbit:

Table of predicted SNOs for the next 14.0 days since TLE Epoch: 8/8/2025
Index Date Time (GOES-16) GOES-16 Lat,Lon METOP-B Lat,Lon Distance(km) Time Diff (sec)
1 08/09/2025 16:08:02 -0.01,-104.75 0.23,-105.89 129.30 80
2 08/10/2025 15:44:43 -0.02,-104.75 -0.86,-100.91 437.94 80
3 08/12/2025 04:06:26 0.01,-104.72 -0.19,-105.53 93.03 80
4 08/13/2025 03:43:08 0.02,-104.72 0.96,-100.56 474.25 80
5 08/14/2025 16:04:41 -0.01,-104.76 0.08,-105.15 44.47 80
6 08/17/2025 04:03:05 0.01,-104.72 -0.02,-104.79 8.76 80
7 08/19/2025 15:58:41 -0.00,-104.75 -0.11,-104.42 39.11 80
8 08/21/2025 04:20:22 -0.01,-104.72 -0.98,-109.03 492.03 80
9 08/22/2025 03:57:05 0.01,-104.72 0.17,-104.06 75.13 80
